SCP
0 0 0 0 0 -0 -0 0 0 -0 0 0 0 0 0 0 0 0 0 0 0 0 0 0 0 0 0 0 0 0 0 0 0 0 0 0 0 0 0 0 0 0 0 0
0 0 0 0 0 -0 -0 0 0 0 0 0 0 0 0 0 0 0 0 0 0 0 0 0 0 0 0 0 0 0 0 0 0 0 0 0 0 0 0 0 0 0 0 0
0 0 0 0 0 0 0 0 0 0 0 0 0 0 0 0 0 0 0 0 0 0 0 0 0 0 0 0 0 0 0 0 0 0 0 0 0 0 0 0 0 0 0 0
0 0 0 0 0 0 0 0 0 0 0 0 0 0 0 0 0 0 0 0 0 0 0 0 0 0 0 0 0 0 0 0 0 0 0 0 0 0 0 0 0 0 0 0
0 0 0 0 0 0 0 0 0 0 0 0 0 0 0 0 0 0 0 0 0 0 0 0 0 0 0 0 0 0 0 0 0 0 0 0 0 0 0 0 0 0 0 0
0 0 0 0 0 0 0 0 0 0 0 0 0 0 0 0 0 0 0 0 0 0 0 0 0 0 0 0 0 0 0 0 0 0 0 0 0 0 0 0 0 0 0 0
0 0 0 0 0 0 0 0 0 0 0 0 0 0 0 0 0 0 0 0 0 0 0 0 0 0 0 0 0 0 0 0 0 0 0 0 0 0 0 0 0 0 0 0
0 0 0 0 0 0 0 0 0 0 0 0 0 0 0 0 0 0 0 0 0 0 0 0 0 0 0 0 0 0 0 0 0 0 0 0 0 0 0 0 0 0 0 0
0 0 0 0 0 0 0 0 0 0 0 0 0 0 0 0 0 0 0 0 0 0 0 0 0 0 0 0 0 0 0 0 0 0 0 0 0 0 0 0 0 0 0 0
0 0 0 0 0 0 0 0 0 0 0 0 0 0 0 0 0 0 0 0 0 0 0 0 0 0 0 0 0 0 0 0 0 0 0 0 0 0 0 0 0 0 -0 0
0 0 0 0 0 0 0 0 0 0 0 0 0 0 0 0 0 0 0 0 0 0 0 0 0 0 0 0 0 0 0 0 0 0 0 0 0 0 -0 0 0 0 0 0
0 0 0 0 0 0 0 0 0 0 0 0 0 0 0 0 0 0 0 0 0 0 0 0 0 0 0 0 0 0 0 0 0 0 0 0 0 0 0 0 0 0 0 0
0 0 0 0 0 0 0 0 0 0 0 0 0 0 0 0 0 0 0 0 0 0 0 0 0 0 0 0 0 0 0 0 0 0 0 0 0 0 0 0 0 0 0 0
0 0 0 0 0 0 0 0 0 0 0 0 0 0 0 0 -0 0 0 0 0 0 0 0 0 0 0 0 0 -0 0 -0 -0 -0 0 0 0 0 0 0 0 0 0 0
0 0 0 0 0 0 0 0 0 0 0 0 0 0 0 0 0 0 0 0 0 0 0 0 0 0 0 0 0 0 0 0 0 0 0 0 -0 0 0 0 0 0 0 0
0 0 0 0 0 0 0 0 0 0 0 0 0 0 0 -0 0 0 0 0 0 0 0 0 0 0 0 0 0 0 -0 0 0 0 0 0 0 0 0 0 0 0 0 0
0 0 0 0 0 0 0 0 0 0 0 0 0 0 0 0 0 0 0 0 0 0 0 0 0 0 0 0 0 0 0 0 0 0 0 0 0 0 0 0 0 0 0 0
0 -0 -0 -0 -0 -0 0 0 0 0 0 0 0 0 0 0 0 0 0 0 0 0 0 0 0 0 0 0 0 0 -0 0 0 0 0 0 0 0 0 0 -0 -0 -0 -0
-0 -0 -0 -0 0 0 0 0 0 0 0 0 0 0 0 0 0 0 0 0 0 0 0 0 0 0 -0 -0 0 0 0 0 0 0 0 0 0 -0 -0 -0 -0 -0 -0 -0
-0 -0 0 0 0 0 0 0 0 0 0 0 0 0 -0 0 0 0 -0 0 0 0 0 0 0 -0 -0 -0 0 0 0 0 0 0 -0 -0 -0 -0 -0 -0 -0 -0 -0 -0
0 0 0 0 0 0 0 0 0 0 0 0 0 -0 0 0 0 0 0 0 0 0 -0 -0 0 0 0 0 0 0 0 0 0 0 -0 -0 0 0 -0 -0 -0 -0 0 0
0 0 0 0 0 0 0 0 0 -0 0 -0 0 -0 0 0 0 0 0 0 0 0 -0 -0 0 -0 0 0 0 0 0 0 -0 -0 -0 0 0 0 0 0 0 0 0 0
0 0 0 0 0 0 -0 0 -0 0 -0 0 0 0 0 0 0 0 0 -0 -0 -0 -0 0 0 0 0 0 0 0 0 -0 -0 -0 0 0 -0 0 0 0 0 0 0 0
0 0 0 -0 0 0 -0 -0 -0 -0 -0 0 0 0 0 0 0 0 0 0 -0 -0 0 -0 0 0 0 0 0 -0 -0 -0 -0 0 0 0 -0 -0 0 0 0 0 0 0
0 0 0 -0 0 0 -0 -0 0 0 0 0 0 0 0 0 0 0 0 0 0 0 0 0 -0 0 -0 0 -0 -0 -0 0 0 0 0 0 0 0 0 0 0 0 0 0
0 0 0 0 0 0 0 -0 0 0 0 0 0 0 0 0 0 0 0 0 0 0 0 0 0 -0 0 0 0 0 -0 0 0 0 0 0 0 0 0 0 0 0 0 0
0 0 0 0 0 0 0 -0 0 0 0 0 0 0 0 0 0 0 -0 0 0 0 -0 0 -0 -0 0 0 0 0 0 0 0 0 0 0 0 0 0 0 0 0 0 0
Wind_Speed_500mb
66 68 71 72 75 81 62 21 9 25 30 4 11 3 5 4 15 23 10 9 15 12 16 11 12 11 14 37 28 10 9 5 7 16 17 20 23 20 8 2 13 4 6 24
62 64 65 64 60 65 71 46 15 6 20 7 9 16 13 13 6 8 8 5 15 15 11 8 10 14 31 33 12 7 10 7 9 15 12 10 8 16 18 15 4 9 8 17
59 59 60 58 50 45 50 18 8 15 9 24 12 14 11 13 14 6 12 10 13 11 9 8 8 13 16 40 14 10 12 8 12 11 15 21 34 37 28 9 1 12 21 32
57 57 56 54 47 30 33 8 8 25 9 20 23 14 17 18 16 15 10 4 11 12 8 14 14 18 19 31 32 21 5 10 14 18 24 31 35 32 32 33 31 19 40 34
50 49 49 51 45 21 23 18 19 26 43 37 19 11 9 17 13 16 12 11 17 13 9 9 12 12 10 8 14 14 14 9 13 12 22 32 40 25 30 32 31 17 20 30
45 43 43 42 41 32 13 26 36 18 24 18 16 13 2 10 17 13 13 21 13 13 14 20 24 30 36 24 13 13 9 4 6 9 23 27 22 17 23 17 12 8 4 11
39 39 39 33 29 26 20 29 35 13 10 18 23 32 34 22 9 8 25 29 17 25 13 27 38 41 47 45 41 37 13 6 5 7 10 5 12 12 15 10 15 12 20 13
35 34 34 32 24 18 9 20 18 14 11 29 35 42 37 39 34 27 28 36 10 5 10 5 11 9 13 23 46 30 33 18 4 2 8 20 21 6 8 12 16 21 5 14
31 32 31 28 25 20 13 7 19 12 18 15 33 45 27 12 13 12 18 31 5 11 4 4 8 6 16 13 14 20 19 11 8 4 7 5 5 13 10 2 9 32 26 27
29 29 28 26 23 20 14 9 17 12 20 40 33 17 18 24 21 8 30 21 13 9 3 6 9 14 14 4 9 14 6 5 13 8 9 11 13 15 16 2 10 36 32 35
29 27 24 23 24 21 19 13 10 16 15 56 34 12 26 30 22 9 21 14 13 7 5 5 5 5 6 6 10 13 13 7 6 8 5 5 8 9 3 11 38 32 32 43
26 24 23 23 22 24 20 10 10 21 29 42 54 57 50 51 46 35 14 20 23 8 5 8 6 5 6 10 8 12 7 3 7 12 9 25 14 8 7 20 23 29 35 37
20 22 22 22 18 17 17 22 16 21 29 51 20 24 27 18 26 21 23 16 15 8 9 10 5 4 8 6 9 13 15 28 7 12 10 19 36 25 41 35 42 43 46 47
24 25 20 15 16 19 22 28 12 23 16 12 20 20 26 8 15 24 22 27 27 15 13 5 1 1 6 5 11 17 18 25 14 18 15 47 32 43 45 57 54 51 59 47
19 16 15 18 20 21 23 22 15 23 21 11 33 54 15 18 30 24 25 23 15 13 11 3 3 5 8 12 11 14 14 4 3 6 34 31 44 56 61 58 59 60 58 50
16 18 21 23 22 18 16 7 7 15 28 12 8 29 29 17 12 19 43 27 18 17 4 1 7 18 6 5 6 15 27 26 20 27 41 44 50 59 57 55 54 47 38 39
22 22 21 21 22 20 11 10 2 10 13 7 13 13 15 9 10 28 19 33 24 14 9 8 13 14 6 5 7 26 42 30 36 41 47 49 41 54 45 26 32 35 32 30
17 17 20 21 24 30 27 13 23 23 17 10 6 9 13 9 5 8 16 25 20 16 10 7 7 3 14 8 26 33 33 38 44 39 44 45 30 39 39 44 48 40 34 34
13 21 23 25 10 7 8 19 19 16 16 7 9 6 5 8 8 7 9 11 6 13 10 10 10 4 9 16 28 33 35 35 42 38 31 29 31 36 40 35 35 36 39 40
17 19 5 7 7 5 7 4 7 12 14 15 13 17 12 14 22 10 10 10 6 6 11 14 6 7 43 43 39 37 40 36 24 33 34 33 38 40 27 37 41 41 35 44
5 6 5 10 10 5 8 8 9 10 8 14 16 32 22 17 11 4 7 5 1 5 6 5 6 5 8 7 19 22 15 26 27 28 31 31 35 19 33 43 37 39 40 44
9 19 27 14 9 11 9 7 11 11 8 17 11 16 26 10 4 5 2 2 2 5 18 3 6 6 3 7 16 23 26 27 27 28 27 31 24 27 34 39 45 43 44 42
6 6 7 8 10 4 10 10 5 2 19 7 15 8 7 11 9 4 4 5 7 3 3 5 4 9 12 17 19 22 24 25 25 27 28 30 29 33 37 38 36 48 50 48
6 8 8 7 9 8 4 5 5 7 15 18 9 7 6 9 7 5 4 7 2 6 5 5 5 15 13 18 19 21 23 24 23 28 29 30 30 31 29 36 34 38 51 57
7 10 7 11 13 8 20 13 18 20 17 22 13 13 7 5 2 4 5 6 6 5 4 6 18 16 15 19 22 20 22 23 23 24 31 28 31 34 25 38 35 37 45 52
9 12 13 24 13 10 20 9 21 18 18 25 19 5 3 5 5 6 7 5 4 2 8 21 20 11 14 19 12 16 17 24 21 17 33 27 36 34 31 27 48 32 35 50
9 14 16 29 31 16 22 15 26 14 20 4 4 9 5 8 6 2 4 2 8 27 26 18 11 11 13 8 15 9 12 12 27 19 25 27 31 36 39 29 39 51 30 38
Wind_Direction_500mb
344 346 347 348 344 341 353 7 307 336 333 267 214 117 8 15 37 26 23 338 323 357 2 357 340 331 305 9 37 30 35 315 317 302 305 310 300 294 303 31 307 278 224 266
343 345 346 347 349 347 346 337 279 359 352 8 351 10 357 288 95 42 33 346 24 359 333 339 293 346 323 359 54 49 24 360 346 331 333 350 355 338 344 317 208 199 244 275
340 344 345 345 349 346 342 335 316 344 359 62 7 1 306 359 131 108 73 343 307 282 291 296 300 326 330 353 80 116 128 181 192 215 265 294 292 303 308 290 324 290 269 301
337 342 344 345 349 350 346 344 358 18 322 333 325 325 310 305 298 94 57 284 320 359 355 345 318 329 336 336 326 350 13 228 245 255 267 278 283 299 307 300 290 278 296 295
334 339 343 346 351 360 30 21 357 334 302 316 308 285 265 284 5 35 3 326 302 337 342 289 315 2 355 285 335 340 342 298 319 293 289 285 289 301 291 287 290 321 340 317
332 337 342 348 350 2 20 12 357 337 293 304 299 308 349 347 7 327 290 351 355 332 323 12 341 315 294 258 254 278 282 274 336 272 277 292 295 263 274 289 353 18 327 268
328 332 337 347 352 359 3 19 349 308 290 314 325 328 346 334 336 335 327 314 292 275 312 323 314 284 266 257 250 223 234 224 252 264 319 264 247 341 37 338 293 10 321 318
322 326 331 337 346 341 340 28 2 325 309 317 311 350 336 336 339 315 285 286 98 82 33 346 299 279 264 254 235 227 207 217 280 221 208 291 307 37 36 39 303 294 14 339
315 321 327 330 333 335 327 14 348 327 304 217 348 317 319 318 355 320 319 341 345 53 60 253 250 276 276 313 344 82 71 134 128 217 268 253 313 75 76 289 264 11 351 316
310 314 319 322 326 330 341 57 351 331 289 280 327 316 317 311 319 289 313 348 319 131 205 258 246 263 312 349 339 337 358 284 204 224 229 247 63 15 335 288 275 329 336 324
306 308 311 313 315 320 321 290 321 331 293 287 290 325 319 313 281 248 333 345 3 319 346 295 326 9 333 336 334 302 291 268 313 6 341 299 267 33 27 268 293 291 296 304
301 304 308 308 308 306 305 309 310 307 282 268 286 289 268 253 251 277 291 302 321 318 348 354 357 341 300 298 289 304 359 69 184 198 230 258 57 334 317 281 301 310 298 307
299 303 307 307 310 318 318 308 313 300 295 310 297 316 341 286 245 233 238 263 271 30 11 316 339 322 14 322 302 344 331 329 324 319 325 353 335 338 331 324 316 311 307 301
289 299 302 296 296 303 302 305 290 292 290 285 296 302 298 258 245 225 230 235 265 310 335 22 324 315 332 290 297 299 280 304 307 302 322 340 317 319 313 312 307 305 312 301
292 294 296 299 296 298 302 303 291 280 255 292 297 316 331 247 236 219 211 221 238 233 254 195 251 274 286 281 272 265 248 286 253 281 300 288 298 309 310 307 307 308 301 299
276 281 288 290 294 310 336 338 313 208 248 303 304 296 297 232 200 204 220 199 200 230 103 284 241 240 253 270 269 263 330 327 310 289 305 309 304 309 314 317 317 316 313 302
283 290 292 293 293 288 237 254 62 72 21 301 292 287 332 300 225 198 213 191 190 186 186 228 239 229 198 276 246 271 294 317 315 309 316 319 319 312 323 354 348 334 323 310
285 287 291 290 288 283 278 279 253 256 284 265 271 276 292 301 296 193 199 177 178 189 212 228 246 189 181 251 250 285 322 319 309 312 318 316 334 345 343 336 337 335 335 326
276 295 300 296 272 255 264 235 251 240 207 263 257 278 326 2 6 249 245 163 192 209 187 212 203 187 227 232 266 292 304 296 302 319 329 339 350 342 337 338 344 344 341 338
294 311 269 255 217 299 266 209 210 207 214 227 250 261 267 261 266 235 165 186 224 190 216 156 199 246 250 263 273 279 290 309 344 360 1 6 352 343 2 358 347 348 353 346
278 263 261 336 328 275 220 213 219 170 237 225 243 232 240 271 254 259 212 183 165 238 183 205 201 254 257 258 266 308 20 19 14 10 1 353 345 360 3 7 7 7 0 357
287 302 300 292 226 228 228 205 201 194 242 185 224 227 200 236 201 194 5 289 261 253 141 206 188 248 150 8 355 46 30 24 20 13 4 358 11 14 15 13 18 15 6 0
329 266 262 227 236 253 228 232 202 316 335 327 333 306 194 202 194 235 126 232 236 91 218 184 92 92 55 11 49 37 31 29 25 18 10 19 36 18 5 5 14 20 18 19
247 244 245 234 208 236 303 329 261 242 236 279 315 324 288 211 190 195 238 236 300 276 115 76 133 56 34 39 51 39 40 31 26 26 18 29 29 23 22 18 9 11 25 23
251 250 242 230 267 186 296 305 293 273 256 246 258 229 202 277 227 274 239 229 262 43 86 119 88 60 36 55 47 38 42 29 23 29 23 33 29 25 26 22 19 7 16 20
240 243 270 297 290 321 264 333 309 292 295 294 268 304 219 215 183 209 216 288 86 142 101 101 77 57 41 47 40 44 33 31 29 39 32 39 32 27 22 15 32 19 7 17
237 244 261 299 295 316 333 19 297 292 296 303 338 10 338 320 260 165 152 188 138 114 107 92 78 34 17 17 14 30 28 27 35 41 40 42 33 35 30 25 25 28 12 7
Wind_Speed_850mb
66 68 71 72 75 81 62 21 9 25 30 4 11 3 5 4 15 23 10 9 15 12 16 11 12 11 14 37 28 10 9 5 7 16 17 20 23 20 8 2 13 4 6 24
62 64 65 64 60 65 71 46 15 6 20 7 9 16 13 13 6 8 8 5 15 15 11 8 10 14 31 33 12 7 10 7 9 15 12 10 8 16 18 15 4 9 8 17
59 59 60 58 50 45 50 18 8 15 9 24 12 14 11 13 14 6 12 10 13 11 9 8 8 13 16 40 14 10 12 8 12 11 15 21 34 37 28 9 1 12 21 32
57 57 56 54 47 30 33 8 8 25 9 20 23 14 17 18 16 15 10 4 11 12 8 14 14 18 19 31 32 21 5 10 14 18 24 31 35 32 32 33 31 19 40 34
50 49 49 51 45 21 23 18 19 26 43 37 19 11 9 17 13 16 12 11 17 13 9 9 12 12 10 8 14 14 14 9 13 12 22 32 40 25 30 32 31 17 20 30
45 43 43 42 41 32 13 26 36 18 24 18 16 13 2 10 17 13 13 21 13 13 14 20 24 30 36 24 13 13 9 4 6 9 23 27 22 17 23 17 12 8 4 11
39 39 39 33 29 26 20 29 35 13 10 18 23 32 34 22 9 8 25 29 17 25 13 27 38 41 47 45 41 37 13 6 5 7 10 5 12 12 15 10 15 12 20 13
35 34 34 32 24 18 9 20 18 14 11 29 35 42 37 39 34 27 28 36 10 5 10 5 11 9 13 23 46 30 33 18 4 2 8 20 21 6 8 12 16 21 5 14
31 32 31 28 25 20 13 7 19 12 18 15 33 45 27 12 13 12 18 31 5 11 4 4 8 6 16 13 14 20 19 11 8 4 7 5 5 13 10 2 9 32 26 27
29 29 28 26 23 20 14 9 17 12 20 40 33 17 18 24 21 8 30 21 13 9 3 6 9 14 14 4 9 14 6 5 13 8 9 11 13 15 16 2 10 36 32 35
29 27 24 23 24 21 19 13 10 16 15 56 34 12 26 30 22 9 21 14 13 7 5 5 5 5 6 6 10 13 13 7 6 8 5 5 8 9 3 11 38 32 32 43
26 24 23 23 22 24 20 10 10 21 29 42 54 57 50 51 46 35 14 20 23 8 5 8 6 5 6 10 8 12 7 3 7 12 9 25 14 8 7 20 23 29 35 37
20 22 22 22 18 17 17 22 16 21 29 51 20 24 27 18 26 21 23 16 15 8 9 10 5 4 8 6 9 13 15 28 7 12 10 19 36 25 41 35 42 43 46 47
24 25 20 15 16 19 22 28 12 23 16 12 20 20 26 8 15 24 22 27 27 15 13 5 1 1 6 5 11 17 18 25 14 18 15 47 32 43 45 57 54 51 59 47
19 16 15 18 20 21 23 22 15 23 21 11 33 54 15 18 30 24 25 23 15 13 11 3 3 5 8 12 11 14 14 4 3 6 34 31 44 56 61 58 59 60 58 50
16 18 21 23 22 18 16 7 7 15 28 12 8 29 29 17 12 19 43 27 18 17 4 1 7 18 6 5 6 15 27 26 20 27 41 44 50 59 57 55 54 47 38 39
22 22 21 21 22 20 11 10 2 10 13 7 13 13 15 9 10 28 19 33 24 14 9 8 13 14 6 5 7 26 42 30 36 41 47 49 41 54 45 26 32 35 32 30
17 17 20 21 24 30 27 13 23 23 17 10 6 9 13 9 5 8 16 25 20 16 10 7 7 3 14 8 26 33 33 38 44 39 44 45 30 39 39 44 48 40 34 34
13 21 23 25 10 7 8 19 19 16 16 7 9 6 5 8 8 7 9 11 6 13 10 10 10 4 9 16 28 33 35 35 42 38 31 29 31 36 40 35 35 36 39 40
17 19 5 7 7 5 7 4 7 12 14 15 13 17 12 14 22 10 10 10 6 6 11 14 6 7 43 43 39 37 40 36 24 33 34 33 38 40 27 37 41 41 35 44
5 6 5 10 10 5 8 8 9 10 8 14 16 32 22 17 11 4 7 5 1 5 6 5 6 5 8 7 19 22 15 26 27 28 31 31 35 19 33 43 37 39 40 44
9 19 27 14 9 11 9 7 11 11 8 17 11 16 26 10 4 5 2 2 2 5 18 3 6 6 3 7 16 23 26 27 27 28 27 31 24 27 34 39 45 43 44 42
6 6 7 8 10 4 10 10 5 2 19 7 15 8 7 11 9 4 4 5 7 3 3 5 4 9 12 17 19 22 24 25 25 27 28 30 29 33 37 38 36 48 50 48
6 8 8 7 9 8 4 5 5 7 15 18 9 7 6 9 7 5 4 7 2 6 5 5 5 15 13 18 19 21 23 24 23 28 29 30 30 31 29 36 34 38 51 57
7 10 7 11 13 8 20 13 18 20 17 22 13 13 7 5 2 4 5 6 6 5 4 6 18 16 15 19 22 20 22 23 23 24 31 28 31 34 25 38 35 37 45 52
9 12 13 24 13 10 20 9 21 18 18 25 19 5 3 5 5 6 7 5 4 2 8 21 20 11 14 19 12 16 17 24 21 17 33 27 36 34 31 27 48 32 35 50
9 14 16 29 31 16 22 15 26 14 20 4 4 9 5 8 6 2 4 2 8 27 26 18 11 11 13 8 15 9 12 12 27 19 25 27 31 36 39 29 39 51 30 38
Wind_Direction_850mb
344 346 347 348 344 341 353 7 307 336 333 267 214 117 8 15 37 26 23 338 323 357 2 357 340 331 305 9 37 30 35 315 317 302 305 310 300 294 303 31 307 278 224 266
343 345 346 347 349 347 346 337 279 359 352 8 351 10 357 288 95 42 33 346 24 359 333 339 293 346 323 359 54 49 24 360 346 331 333 350 355 338 344 317 208 199 244 275
340 344 345 345 349 346 342 335 316 344 359 62 7 1 306 359 131 108 73 343 307 282 291 296 300 326 330 353 80 116 128 181 192 215 265 294 292 303 308 290 324 290 269 301
337 342 344 345 349 350 346 344 358 18 322 333 325 325 310 305 298 94 57 284 320 359 355 345 318 329 336 336 326 350 13 228 245 255 267 278 283 299 307 300 290 278 296 295
334 339 343 346 351 360 30 21 357 334 302 316 308 285 265 284 5 35 3 326 302 337 342 289 315 2 355 285 335 340 342 298 319 293 289 285 289 301 291 287 290 321 340 317
332 337 342 348 350 2 20 12 357 337 293 304 299 308 349 347 7 327 290 351 355 332 323 12 341 315 294 258 254 278 282 274 336 272 277 292 295 263 274 289 353 18 327 268
328 332 337 347 352 359 3 19 349 308 290 314 325 328 346 334 336 335 327 314 292 275 312 323 314 284 266 257 250 223 234 224 252 264 319 264 247 341 37 338 293 10 321 318
322 326 331 337 346 341 340 28 2 325 309 317 311 350 336 336 339 315 285 286 98 82 33 346 299 279 264 254 235 227 207 217 280 221 208 291 307 37 36 39 303 294 14 339
315 321 327 330 333 335 327 14 348 327 304 217 348 317 319 318 355 320 319 341 345 53 60 253 250 276 276 313 344 82 71 134 128 217 268 253 313 75 76 289 264 11 351 316
310 314 319 322 326 330 341 57 351 331 289 280 327 316 317 311 319 289 313 348 319 131 205 258 246 263 312 349 339 337 358 284 204 224 229 247 63 15 335 288 275 329 336 324
306 308 311 313 315 320 321 290 321 331 293 287 290 325 319 313 281 248 333 345 3 319 346 295 326 9 333 336 334 302 291 268 313 6 341 299 267 33 27 268 293 291 296 304
301 304 308 308 308 306 305 309 310 307 282 268 286 289 268 253 251 277 291 302 321 318 348 354 357 341 300 298 289 304 359 69 184 198 230 258 57 334 317 281 301 310 298 307
299 303 307 307 310 318 318 308 313 300 295 310 297 316 341 286 245 233 238 263 271 30 11 316 339 322 14 322 302 344 331 329 324 319 325 353 335 338 331 324 316 311 307 301
289 299 302 296 296 303 302 305 290 292 290 285 296 302 298 258 245 225 230 235 265 310 335 22 324 315 332 290 297 299 280 304 307 302 322 340 317 319 313 312 307 305 312 301
292 294 296 299 296 298 302 303 291 280 255 292 297 316 331 247 236 219 211 221 238 233 254 195 251 274 286 281 272 265 248 286 253 281 300 288 298 309 310 307 307 308 301 299
276 281 288 290 294 310 336 338 313 208 248 303 304 296 297 232 200 204 220 199 200 230 103 284 241 240 253 270 269 263 330 327 310 289 305 309 304 309 314 317 317 316 313 302
283 290 292 293 293 288 237 254 62 72 21 301 292 287 332 300 225 198 213 191 190 186 186 228 239 229 198 276 246 271 294 317 315 309 316 319 319 312 323 354 348 334 323 310
285 287 291 290 288 283 278 279 253 256 284 265 271 276 292 301 296 193 199 177 178 189 212 228 246 189 181 251 250 285 322 319 309 312 318 316 334 345 343 336 337 335 335 326
276 295 300 296 272 255 264 235 251 240 207 263 257 278 326 2 6 249 245 163 192 209 187 212 203 187 227 232 266 292 304 296 302 319 329 339 350 342 337 338 344 344 341 338
294 311 269 255 217 299 266 209 210 207 214 227 250 261 267 261 266 235 165 186 224 190 216 156 199 246 250 263 273 279 290 309 344 360 1 6 352 343 2 358 347 348 353 346
278 263 261 336 328 275 220 213 219 170 237 225 243 232 240 271 254 259 212 183 165 238 183 205 201 254 257 258 266 308 20 19 14 10 1 353 345 360 3 7 7 7 0 357
287 302 300 292 226 228 228 205 201 194 242 185 224 227 200 236 201 194 5 289 261 253 141 206 188 248 150 8 355 46 30 24 20 13 4 358 11 14 15 13 18 15 6 0
329 266 262 227 236 253 228 232 202 316 335 327 333 306 194 202 194 235 126 232 236 91 218 184 92 92 55 11 49 37 31 29 25 18 10 19 36 18 5 5 14 20 18 19
247 244 245 234 208 236 303 329 261 242 236 279 315 324 288 211 190 195 238 236 300 276 115 76 133 56 34 39 51 39 40 31 26 26 18 29 29 23 22 18 9 11 25 23
251 250 242 230 267 186 296 305 293 273 256 246 258 229 202 277 227 274 239 229 262 43 86 119 88 60 36 55 47 38 42 29 23 29 23 33 29 25 26 22 19 7 16 20
240 243 270 297 290 321 264 333 309 292 295 294 268 304 219 215 183 209 216 288 86 142 101 101 77 57 41 47 40 44 33 31 29 39 32 39 32 27 22 15 32 19 7 17
237 244 261 299 295 316 333 19 297 292 296 303 338 10 338 320 260 165 152 188 138 114 107 92 78 34 17 17 14 30 28 27 35 41 40 42 33 35 30 25 25 28 12 7